#timestamp,LO_Frequency,Hit,StdDev 
1628942415.9,286046998.1,P
1628942435.7,286046999.1,N
1628942455.5,286046998.5,N
1628942475.4,286046998.8,N
1628942495.2,286046999.1,N
1628942515.0,286046996.6,Y
1628942515.9,286046996.6,P
1628942535.8,286047001.2,N
1628942555.6,286046998.1,N
1628942575.5,286047000.8,N
1628942595.3,286047001.1,N
1628942615.1,286047001.1,N
1628942635.9,286047000.9,N
1628942655.7,286047001.0,N
1628942675.5,286046998.7,N
1628942695.4,286046998.9,N
1628942715.2,286046998.9,N
1628942735.1,286046997.4,N
1628942736.0,286046997.4,N
1628942755.8,286046997.0,N
1628942775.6,286046999.4,N
1628942795.5,286046999.1,N
1628942815.3,286046999.0,N
1628942835.1,286046996.8,N
1628942855.9,286046995.0,Y
1628942875.7,286046996.6,P
1628942895.6,286046999.3,N
1628942915.4,286046998.8,N
1628942935.2,286046998.6,N
1628942955.1,286046998.4,N
1628942956.0,286046998.4,N
1628942975.8,286046999.2,N
1628942995.7,286046999.6,N
1628943015.5,286046997.1,Y
1628943035.3,286046998.4,P
1628943055.2,286046998.8,P
1628943075.0,286046998.9,P
1628943075.9,286046998.9,Y
1628943095.8,286047001.2,P
1628943115.6,286046998.2,N
1628943135.4,286046998.6,N
1628943155.3,286046999.4,N
1628943175.1,286046999.0,N
1628943195.8,286046998.3,N
1628943215.7,286047000.9,N
1628943235.5,286047000.1,N
1628943255.4,286047000.1,N
1628943275.2,286047002.6,N
1628943295.0,286047001.9,N
1628943295.9,286047001.9,N
1628943315.8,286047002.2,N
1628943335.6,286047002.1,N
1628943355.4,286047002.4,N
1628943375.3,286047002.5,N
1628943395.1,286047001.9,N
1628943415.9,286047002.0,N
1628943435.7,286047004.3,N
1628943455.5,286047003.9,N
1628943475.4,286047003.3,N
1628943495.2,286047004.2,N
1628943515.0,286047004.0,N
1628943515.9,286047004.0,N
1628943535.8,286047002.6,N
1628943555.6,286047002.1,N
1628943575.5,286047001.6,N
1628943595.3,286047002.5,N
1628943615.1,286047000.4,N
1628943635.9,286047000.9,N
1628943655.7,286047000.8,N
1628943675.5,286046998.1,N
1628943695.4,286046998.8,N
1628943715.2,286047001.0,N
1628943735.1,286047000.6,N
1628943736.0,286047000.6,N
1628943755.8,286047002.8,N
1628943775.6,286047002.1,N
1628943795.5,286047002.2,N
1628943815.3,286047002.8,N
1628943835.1,286047000.9,N
1628943855.9,286047001.2,N
1628943875.7,286046998.2,N
1628943895.6,286046998.3,N
1628943915.4,286046998.5,N
1628943935.2,286046998.1,N
1628943955.1,286047000.8,N
1628943956.0,286047000.8,N
1628943975.8,286047000.6,N
1628943995.6,286046999.9,N
1628944015.5,286047001.6,N
1628944035.3,286047000.4,N
1628944055.2,286047000.5,N
1628944075.9,286047002.2,N
1628944095.7,286047002.1,N
1628944115.6,286047004.0,N
1628944135.4,286047003.7,N
1628944155.2,286047004.3,N
1628944175.1,286047002.6,N
1628944176.0,286047002.6,N
1628944195.8,286047000.2,N
1628944215.7,286047002.7,N
1628944235.5,286046999.7,N
1628944255.3,286047000.2,N
1628944275.2,286047002.6,N
1628944295.0,286047002.2,N
1628944295.9,286047002.2,N
1628944315.8,286046999.8,N
1628944335.6,286047002.8,N
1628944355.4,286047000.0,N
1628944375.3,286047000.9,N
1628944395.1,286047000.4,N
1628944415.9,286046999.8,N
1628944435.7,286047002.1,N
1628944455.5,286047002.8,N
1628944475.4,286047002.3,N
1628944495.2,286047002.5,N
1628944515.0,286047002.7,N
1628944515.9,286047002.7,N
1628944535.8,286047002.3,N
1628944555.6,286047000.9,N
1628944575.5,286047001.0,N
1628944595.3,286047000.4,N
1628944615.1,286047000.1,N
1628944635.9,286046999.8,N
1628944655.7,286047001.6,N
1628944675.5,286047001.4,N
1628944695.4,286047002.7,N
1628944715.2,286047002.3,N
1628944735.1,286047000.3,N
1628944736.0,286047000.3,N
1628944755.8,286047002.8,N
1628944775.6,286047001.0,N
1628944795.5,286047001.1,N
1628944815.3,286046998.4,N
1628944835.1,286046999.2,N
1628944855.9,286046996.9,N
1628944875.7,286046998.4,N
1628944895.6,286046998.6,N
1628944915.4,286046996.9,N
1628944935.2,286046999.3,N
1628944955.1,286046998.8,N
1628944956.0,286046998.8,N
1628944975.8,286046998.6,N
1628944995.6,286046998.2,N
1628945015.5,286046998.1,N
1628945035.3,286047000.3,N
1628945055.2,286047000.0,N
1628945075.9,286047000.9,N
1628945095.7,286046998.6,N
1628945115.6,286047000.9,N
1628945135.4,286047001.0,N
1628945155.2,286046998.1,N
1628945175.1,286047000.7,N
1628945176.0,286047000.7,N
1628945195.8,286047000.6,N
1628945215.7,286047000.8,N
1628945235.5,286046998.6,N
1628945255.3,286046998.9,N
1628945275.2,286046999.1,N
1628945295.0,286046998.5,N
1628945295.9,286046998.5,N
1628945315.8,286047001.2,N
1628945335.6,286047000.7,N
1628945355.4,286047000.8,N
1628945375.3,286046999.9,N
1628945395.1,286047000.1,N
1628945415.8,286047002.3,N
1628945435.7,286047002.0,N
1628945455.5,286047001.5,N
1628945475.4,286047001.9,N
1628945495.2,286047002.6,N
1628945515.0,286047000.3,N
1628945515.9,286047000.3,N
1628945535.8,286047000.2,N
1628945555.6,286047002.4,N
1628945575.4,286046999.8,N
1628945595.3,286047002.5,N
1628945615.1,286047001.5,N
1628945635.9,286047002.8,N
1628945655.7,286047002.3,N
1628945675.5,286047004.0,N
1628945695.4,286047004.2,N
1628945715.2,286047001.6,N
1628945735.0,286046999.8,N
1628945735.9,286046999.8,N
1628945755.8,286047002.3,N
1628945775.1,286047002.1,N
1628945795.9,286047002.1,N
1628945815.7,286047002.4,N
1628945835.5,286047000.1,N
1628945855.4,286047000.3,N
1628945875.2,286047000.0,N
1628945895.1,286047000.5,N
1628945896.0,286047000.5,N
1628945915.8,286046998.5,N
1628945935.6,286047000.7,N
1628945955.5,286047000.6,N
1628945975.3,286047000.0,N
1628945995.2,286047000.6,N
